Flag for Denmark Weather past 2 weeks in Kolding, Denmark

Now
59 °F

Cool.


Feels Like: 58 °F
Forecast: 57 / 65 °F
Wind: 8 mph from Northeast

Location: Vamdrup

Current Time: Aug 31, 2015 at 7:44:03 AM

Latest Report: Aug 31, 2015 at 7:20 AM


Visibility: N/A

Pressure: 29.98 "Hg

Humidity: 94%

Dew point: 57 °F

Location of KoldingLocation

Historic Weather in Kolding — Graph

°F

Kolding temperature yesterday

Maximum temperature yesterday: 66 °F (at 11:50 AM)
Minimum temperature yesterday: 54 °F (at 5:20 AM)
Average temperature yesterday: 59 °F

Past Weeks' High & Low Weather Summary

 TemperatureHumidityPressure
High77 °F (Aug 17, 2:50 PM)100% (Aug 16, 7:50 AM)30.30 "Hg (Aug 16, 7:50 AM)
Low50 °F (Aug 28, 5:50 AM)28% (Aug 21, 4:50 PM)29.59 "Hg (Aug 24, 10:20 PM)
Average63 °F75%30.00 "Hg
* Reported Aug 16 6:20 AM — Aug 31 6:20 AM, Kolding, Weather by CustomWeather, © 2015

Note: Actual official high and low records may vary slightly from our data, if they occured in-between our weather recording intervals... More about our weather records

Advertising

Kolding weather history for previous 24 hours

 ConditionsComfort  
Time TempWeatherWind HumidityBarometerVisibility
6:20 AM
Mon, Aug 31
59 °FCool.9 mph94%30.01 "HgN/A
5:50 AM59 °FCool.7 mph94%30.01 "HgN/A
5:20 AM59 °FCool.7 mph94%30.04 "HgN/A
4:50 AM59 °FCool.6 mph88%30.04 "HgN/A
4:20 AM59 °FCool.6 mph88%30.04 "HgN/A
3:50 AM59 °FCool.6 mph88%30.04 "HgN/A
3:20 AM59 °FCool.7 mph94%30.04 "HgN/A
2:50 AM59 °FCool.6 mph94%30.07 "HgN/A
2:20 AM59 °FCool.7 mph94%30.07 "HgN/A
1:50 AM59 °FCool.2 mph94%30.07 "HgN/A
1:20 AM59 °FCool.7 mph94%30.07 "HgN/A
12:50 AM59 °FCool.5 mph94%30.07 "HgN/A
12:20 AM59 °FCool.5 mph94%30.07 "HgN/A
11:20 PM
Sun, Aug 30
61 °FCool.5 mph83%30.09 "HgN/A
10:50 PM61 °FCool.6 mph83%30.09 "HgN/A
10:20 PM61 °FCool.6 mph83%30.09 "HgN/A
9:20 PM61 °FCool.5 mph83%30.09 "HgN/A
8:50 PM61 °FCool.5 mph83%30.09 "HgN/A
8:20 PM61 °FCool.6 mph83%30.09 "HgN/A
7:50 PM63 °FMild.6 mph77%30.09 "HgN/A
7:20 PM63 °FMild.6 mph77%30.09 "HgN/A
6:50 PM63 °FMild.7 mph77%30.09 "HgN/A
6:20 PM64 °FMild.6 mph68%30.09 "HgN/A
3:50 PM66 °FPassing clouds.5 mph60%30.09 "HgN/A
2:50 PM66 °FSunny.3 mph64%30.12 "Hg10 mi
1:50 PM66 °FPartly sunny.5 mph68%30.12 "HgN/A
12:50 PM66 °FBroken clouds.2 mph64%30.12 "HgN/A
11:50 AM66 °FBroken clouds.5 mph64%30.12 "HgN/A
10:50 AM64 °FPartly sunny.5 mph73%30.15 "HgN/A
9:50 AM59 °FSunny.1 mph94%30.12 "Hg10 mi
8:50 AM57 °FBroken clouds.1 mph94%30.15 "Hg4 mi
7:50 AM55 °FCool.1 mph94%30.12 "HgN/A
7:20 AM54 °FCool.3 mph94%30.12 "HgN/A
Weather by CustomWeather, © 2015

See weather overviewHow to use our weather pages